STARLINK-30104 (56300 NORAD) Tracking and Keplerian Element Data

This shows tracking and keplerian element data for the satellite.

Feedback or suggestion? Click here.




ElementValue
Catalog56300
NameSTARLINK-30104
Epoch Orbit324
Epoch Day127.25001157
Epoch Year2023
RAAN97.7456
Inclination43.0034
Eccentricity0.0001392
Argument of Perigee273.3954
Mean Anonmoly122.1646
Mean Motion15.40019223
Decay Rate-0.01354219
L11 56300U 23056Q 23127.25001157 -.01354219 00000+0 -36343-1 0 9992
L22 56300 43.0034 97.7456 0001392 273.3954 122.1646 15.40019223 3244



Live tracking and technical data element details for STARLINK-30104 (NORAD 56300). STARLINK-30104 can be tracked NOW for your location showing map with azimuth and elevation plus other details from your city location.







IsCatalogInMostPopularTable: catalog: 56300, numindb: 5
Update: records affected: 1



GetName: 56300 STARLINK-30104

Hit Count: updated at: Wed, 07 Jun 2023 10:01:25 GMT